Other Public Products
Issued by NWS Grand Forks, ND

Home | Current Version | Previous Version | Text Only | Print | Product List | Glossary On
Versions: 1 2 3 4 5 6 7 8 9 10 11 12 13 14 15 16 17 18 19 20 21 22 23 24 25 26 27 28 29 30 31 32 33 34 35 36 37 38 39 40 41 42 43 44 45 46 47 48 49 50
000
FPUS83 KFGF 181831
OPUFGF
PRAIRIE TO PINES WEATHER ROUNDUP
NATIONAL WEATHER SERVICE EASTERN NORTH DAKOTA/GRAND FORKS ND
100 PM CDT WED OCT 18 2017

 **SATELLITE DATA USED TO AUGMENT SKY COVER AT AUTOMATED STATIONS**
 *****  WEATHER ACROSS EASTERN NORTH DAKOTA  *****

CITY           SKY/WX    TMP DP  RH WIND       PRES   REMARKS
GRAND FORKS    FAIR      61  19  19 W22G37    29.80R
6HR MIN TEMP:  54; 6HR MAX TEMP:  62;

GRAND FORKS AF FAIR      59  18  20 W24G36    29.80R
GRAND CITY NWS NOT AVBL
BUXTON           N/A     61  25  25 W21G40      N/A
DEVILS LAKE    FAIR      55  17  22 W32G44    29.81R
6HR MIN TEMP:  47; 6HR MAX TEMP:  55;

FARGO          FAIR      60  25  26 W21G32    29.87S
6HR MIN TEMP:  48; 6HR MAX TEMP:  61;

WAHPETON ARPT  NOT AVBL
$$

 *****  WEATHER ACROSS CENTRAL AND WESTERN NORTH DAKOTA  *****

CITY           SKY/WX    TMP DP  RH WIND       PRES   REMARKS
JAMESTOWN      FAIR      57  15  19 NW22G39   29.90R
6HR MIN TEMP:  51; 6HR MAX TEMP:  57;

BISMARCK       FAIR      57  21  24 NW20G28   29.99S
6HR MIN TEMP:  49; 6HR MAX TEMP:  57;

MINOT          FAIR      55  19  24 W28G41    29.88R
6HR MIN TEMP:  46; 6HR MAX TEMP:  55;

MINOT AFB      FAIR      55  17  23 NW33G44   29.85S
6HR MIN TEMP:  44; 6HR MAX TEMP:  55;

GARRISON         N/A     53  18  25 W21G35    29.94R
6HR MIN TEMP:  44; 6HR MAX TEMP:  54;

WILLISTON      FAIR      53  22  29 W20       29.97S
6HR MIN TEMP:  40; 6HR MAX TEMP:  53;

DICKINSON      FAIR      54  23  30 W20       30.00S
6HR MIN TEMP:  40; 6HR MAX TEMP:  54;

HETTINGER      FAIR      54  20  26 W13       30.06S
6HR MIN TEMP:  38; 6HR MAX TEMP:  55;

$$

 *****  OTHER OBSERVATIONS NORTHEAST NORTH DAKOTA  *****

CITY           SKY/WX    TMP DP  RH WIND       PRES   REMARKS
WALHALLA       FAIR     N/A N/A N/A W20G41    29.70R
LANGDON        FAIR      57  12  17 W33G48    29.72R
CAVALIER       FAIR      59  10  14 W33G41    29.71R
GRAFTON        FAIR      57  19  23 W28G43    29.77R
CANDO          FAIR      55  16  21 W33G43    29.81R
FORT TOTTEN      N/A     56  18  22 NW14      29.95S
ROLLA          FAIR      54  12  19 W30G46    29.75R
RUGBY          FAIR      54  14  20 W38G47    29.80F
 ***** THE ABOVE OBSERVATIONS ARE NON NWS ARE NOT QUALITY
        CONTROLLED AND MAY MIS-REPORT RAIN FOR SNOW...
$$

 *****  OTHER OBSERVATIONS SOUTHEAST NORTH DAKOTA *****

CITY           SKY/WX    TMP DP  RH WIND       PRES   REMARKS
COOPERSTOWN    FAIR      57  12  17 W28G40    29.86R
VALLEY CITY    FAIR      57  16  19 W25G33    29.90R
OAKES          NOT AVBL
GWINNER        CLEAR     59  23  25 NW13G21   29.93R
SHEYENNE NWR     N/A     58  21  24 NW12      29.95S
BUFFALO          N/A     59  17  19 NW21G33     N/A
WYNDMERE       NOT AVBL
 ***** THE ABOVE OBSERVATIONS ARE NON NWS ARE NOT QUALITY
       CONTROLLED AND MAY MIS-REPORT RAIN FOR SNOW...
$$

  *****  WEATHER ACROSS NORTHERN MINNESOTA  *****

CITY           SKY/WX    TMP DP  RH WIND       PRES   REMARKS
FLAG ISLAND    FAIR      55  23  28 W26G37    29.56R
WARROAD        FAIR      57  28  33 W23G33    29.64S
ROSEAU         FAIR      57  21  24 W18G38    29.66R
HALLOCK        FAIR      61  12  15 W23G39    29.70S
THF RVR FALLS  FAIR      58  21  24 W28G38    29.77
6HR MIN TEMP:  52; 6HR MAX TEMP:  58;

HALSTAD          N/A     62  16  16 NW21G32     N/A
FOSSTON        FAIR      57  21  24 W18G30    29.80S
BAUDETTE       FAIR      58  27  30 W18G31    29.64R
6HR MIN TEMP:  54; 6HR MAX TEMP:  62;

WASKISH        FAIR      55  36  47 W17G25    29.72R
CROOKSTON      FAIR      61  18  18 W29G39    29.79S
$$
  *****  WEATHER ACROSS CENTRAL AND WEST MINNESOTA  *****

CITY           SKY/WX    TMP DP  RH WIND       PRES   REMARKS
BEMIDJI        FAIR      60  21  21 W30       29.76F
6HR MIN TEMP:  52; 6HR MAX TEMP:  60;

PARK RAPIDS    FAIR      59  26  28 NW17G29   29.80R
6HR MIN TEMP:  46; 6HR MAX TEMP:  62;

WADENA         FAIR      59  28  31 NW15G24   29.84R
DETROIT LAKES  FAIR      57  23  26 NW14G28   29.86S
MOORHEAD       FAIR      61  25  25 W17       29.87F
FERGUS FALLS   FAIR      55  25  30 NW16G26   29.89S
ELBOW LAKE     FAIR      59  29  32 NW21G29   29.90R
6HR MIN TEMP:  47; 6HR MAX TEMP:  60;

MORRIS MN      FAIR      64  30  27 N23       29.89R
STAPLES        FAIR      63  27  25 NW20G26   29.83R
WHEATON        NOT AVBL
$$
  *****  WEATHER ELSEWHERE ACROSS MINNESOTA  *****

CITY           SKY/WX    TMP DP  RH WIND       PRES   REMARKS
DULUTH         FAIR      64  46  52 SW15      29.70S
6HR MIN TEMP:  52; 6HR MAX TEMP:  65;

INTRNTL FALLS  FAIR      62  19  19 W18G28    29.63R
6HR MIN TEMP:  57; 6HR MAX TEMP:  65; 6HR PCP: TRACE;

ELY            FAIR      64  34  32 W21G29    29.63F
CLOQUET        FAIR      64  37  36 W13       29.72S
BRAINERD       FAIR      65  34  31 NW12      29.80R
6HR MIN TEMP:  51; 6HR MAX TEMP:  65;

HIBBING        FAIR      63  33  32 W13G25    29.69R
6HR MIN TEMP:  44; 6HR MAX TEMP:  65;

ALEXANDRIA     FAIR      63  29  27 NW23G30   29.88R
6HR MIN TEMP:  54; 6HR MAX TEMP:  64;

SAINT CLOUD    FAIR      68  43  40 NW10      29.82R
6HR MIN TEMP:  47; 6HR MAX TEMP:  68;

MINNEAPOLIS    PTSUNNY   65  48  54 W14G24    29.84R
6HR MIN TEMP:  49; 6HR MAX TEMP:  66;

$$

  *****  WEATHER ACROSS SOUTH DAKOTA  *****

CITY           SKY/WX    TMP DP  RH WIND       PRES   REMARKS
SIOUX FALLS    FAIR      70  40  33 N20G26    29.93R
6HR MIN TEMP:  50; 6HR MAX TEMP:  70;

BROOKINGS      FAIR      67  34  29 N17G24    29.93R
WATERTOWN      FAIR      63  32  31 N18       29.93R
6HR MIN TEMP:  40; 6HR MAX TEMP:  63;

HURON          FAIR      66  30  26 N17G28    29.97R
6HR MIN TEMP:  39; 6HR MAX TEMP:  66;

SISSETON         N/A     62  20  19 N22G32    29.91R
ABERDEEN       FAIR      58  25  28 NW12      29.99R
6HR MIN TEMP:  38; 6HR MAX TEMP:  63;

MITCHELL       FAIR      69  34  27 N18G26    29.98R
PIERRE         FAIR      63  27  25 N12G21    30.04R
6HR MIN TEMP:  45; 6HR MAX TEMP:  64;

MOBRIDGE       FAIR      59  27  29 NW13      30.01R
RAPID CITY     FAIR      60  22  23 N10       30.10F
6HR MIN TEMP:  49; 6HR MAX TEMP:  60;

$$

  *****  SOME WEATHER IN NEARBY STATES *****

CITY           SKY/WX    TMP DP  RH WIND       PRES   REMARKS
GLASGOW MT     FAIR      53  21  28 W14       29.97F
6HR MIN TEMP:  36; 6HR MAX TEMP:  54;

GREAT FALLS MT FAIR      58  31  35 SW21G29   29.94S
6HR MIN TEMP:  43; 6HR MAX TEMP:  58;

CHEYENNE WY    FAIR      69   9   9 W12G23    30.20R
6HR MIN TEMP:  52; 6HR MAX TEMP:  69;

SCOTTSBLUFF NE FAIR      70  22  16 NE10      30.12R
6HR MIN TEMP:  43; 6HR MAX TEMP:  71;

OMAHA NE       FAIR      71  49  45 S15       29.92S
6HR MIN TEMP:  49; 6HR MAX TEMP:  71;

DES MOINES IA  PTSUNNY   71  48  43 S17       29.94F
6HR MIN TEMP:  52; 6HR MAX TEMP:  71;

DAVENPORT IA   FAIR      69  46  43 S15G22    30.06F
6HR MIN TEMP:  49; 6HR MAX TEMP:  69;

CHICAGO IL     FAIR      68  44  42 S21G26    30.09F
6HR MIN TEMP:  48; 6HR MAX TEMP:  68;

EAU CLAIRE WI  FAIR      69  48  47 S12       29.83S
6HR MIN TEMP:  50; 6HR MAX TEMP:  69;

LA CROSSE WI   FAIR      69  49  48 S20       29.87F
6HR MIN TEMP:  54; 6HR MAX TEMP:  69;

$$

  *****  SOME NATIONAL WEATHER *****

CITY           SKY/WX    TMP DP  RH WIND       PRES   REMA



USA.gov is the U.S. government's official web portal to all federal, state and local government web resources and services.